sat.trackr.live / text

‹ back to catalog

STARLINK-32865

NORAD 62952 · 2025-029E

PAYLOAD ACTIVE UNKNOWN

§ Identity

Operator
Country
US
Launch date
2025-02-11
Launch site
AFWTR
Launch vehicle
Mass (kg)
RCS (m²)

Purposes: comms

External: N2YO · Heavens-Above · Gunter

§ Orbital elements

Epoch: 2026-05-24T23:47:15.196704Z

Period
94.01 min
Inclination
53.1594°
Eccentricity
0.0001469
Mean motion
15.31713081 rev/d
Perigee alt
469.7 km
Apogee alt
471.7 km
Semi-major
6,848.8 km
B*
7.3887e-4
RAAN
237.7625°
Arg perigee
92.7222°
Mean anomaly
267.3948°
Rev number
7,301

§ Raw data

STARLINK-328651 62952U 25029E   26144.99114811  .00022642  00000+0  73887-3 0  99942 62952  53.1594 237.7625 0001469  92.7222 267.3948 15.31713081 73019

JSON: /api/v1/satellites/62952 · /tle

For live sub-satellite position, see the globe view (requires WebGL).

§ Visibility from observer

Set your observer location to see the next 7 days of passes ≥ 10°. The values pass through the URL so the page stays shareable.

No JS? Fill the form by hand. The geolocation button needs JavaScript.